Location: Unspecified
(0.0000°N, 0.0000°E)
Time: 11:27:54
(UTC+00:00)

Tiros 1 - Pass Details

Date: 19 November 2019
Orbit: 630 x 664 km, 48.4° (Epoch: 13 December)

Event Time Altitude Azimuth Distance (km) Brightness Sun altitude
Rises 11:43:19 0° 238° (WSW) 2,935 10.7 70.5°
Reaches altitude 10° 11:45:55 10° 250° (WSW) 2,018 9.9 70.5°
Maximum altitude 11:49:53 28° 309° (NW) 1,183 8.8 70.5°
Drops below altitude 10° 11:53:50 10° 8° (N) 1,998 9.6 70.4°
Sets 11:56:24 0° 20° (NNE) 2,900 10.3 70.4°
